DW7251 Weather Reports


Display with metric or nautical units.
time (UTC)temp
F
wind
direction
speed
MPH
gust
MPH
rain 1hr
in
rain 24hr
in
rain mn
in
humidity
%
barometer
mb
20260904112157 58 37 0.0 5.0 0.00 0.00 0.00 80 1012.1
20260904111648 58 272 0.0 4.0 0.00 0.00 0.00 79 1012.3
20260904111140 58 346 0.0 2.0 0.00 0.00 0.00 79 1012.3
20260904110648 58 35 0.0 2.0 0.00 0.00 0.00 79 1012.4
20260904110147 58 356 0.0 2.0 0.00 0.00 0.00 78 1012.4
20260904105645 58 323 0.0 0.0 0.00 0.00 0.00 78 1012.6
20260904105130 58 42 0.0 3.0 0.00 0.00 0.00 78 1012.6
20260904104614 59 12 1.0 12.0 0.00 0.00 0.00 77 1012.6
20260904104055 59 279 2.0 12.0 0.00 0.00 0.00 77 1012.7
20260904103548 59 11 3.0 12.0 0.00 0.00 0.00 76 1012.7
20260904103035 59 340 4.0 12.0 0.00 0.00 0.00 75 1012.7
20260904102521 59 335 3.0 9.0 0.00 0.00 0.00 75 1012.8
20260904101400 59 343 4.0 10.0 0.00 0.00 0.00 74 1012.6
20260904100848 59 28 4.0 11.0 0.00 0.00 0.00 74 1012.7
20260904100355 59 331 4.0 11.0 0.00 0.00 0.00 73 1012.7
20260904095859 59 300 4.0 11.0 0.00 0.00 0.00 73 1012.6
20260904095339 59 267 4.0 11.0 0.00 0.00 0.00 72 1012.5
20260904094835 59 304 3.0 12.0 0.00 0.00 0.00 72 1012.7
20260904094326 59 25 4.0 12.0 0.00 0.00 0.00 72 1012.7
20260904093202 59 348 2.0 12.0 0.00 0.00 0.00 73 1012.8
20260904092651 59 32 1.0 5.0 0.00 0.00 0.00 72 1012.7
20260904092146 59 293 1.0 5.0 0.00 0.00 0.00 71 1012.9
20260904091628 59 356 1.0 7.0 0.00 0.00 0.00 71 1013.0
20260904091109 58 305 1.0 9.0 0.00 0.00 0.00 71 1013.0
20260904090600 58 343 1.0 9.0 0.00 0.00 0.00 71 1012.9
20260904090043 58 325 3.0 9.0 0.00 0.00 0.00 70 1012.9
20260904085538 58 18 3.0 9.0 0.00 0.00 0.00 70 1013.0
20260904085040 58 297 3.0 9.0 0.00 0.00 0.00 70 1013.1
20260904084527 58 1 3.0 11.0 0.00 0.00 0.00 70 1012.8
20260904084021 58 323 2.0 11.0 0.00 0.00 0.00 70 1012.8
20260904083522 58 341 3.0 11.0 0.00 0.00 0.00 70 1012.8
20260904083008 59 322 4.0 11.0 0.00 0.00 0.00 69 1012.9
20260904082503 59 304 4.0 11.0 0.00 0.00 0.00 69 1013.1
20260904081957 59 8 4.0 11.0 0.00 0.00 0.00 69 1013.0
20260904081441 59 345 3.0 10.0 0.00 0.00 0.00 69 1013.1
20260904080320 59 44 3.0 13.0 0.00 0.00 0.00 68 1013.1
20260904075802 60 37 4.0 14.0 0.00 0.00 0.00 68 1013.3
20260904074024 60 253 4.0 14.0 0.00 0.00 0.00 67 1013.6
20260904073533 60 238 4.0 14.0 0.00 0.00 0.00 66 1013.6
20260904073034 60 32 3.0 16.0 0.00 0.00 0.00 66 1013.7
20260904071904 60 346 5.0 16.0 0.00 0.00 0.00 65 1013.5
20260904071414 61 30 5.0 16.0 0.00 0.00 0.00 65 1013.5
20260904070923 61 16 5.0 15.0 0.00 0.00 0.00 65 1013.6
20260904070408 61 60 5.0 14.0 0.00 0.00 0.00 65 1013.6
20260904065900 61 38 5.0 11.0 0.00 0.00 0.00 64 1013.5
20260904065344 61 312 5.0 11.0 0.00 0.00 0.00 64 1013.6
20260904064834 62 299 4.0 15.0 0.00 0.00 0.00 63 1013.6
20260904064315 62 325 4.0 15.0 0.00 0.00 0.00 63 1013.6
20260904063817 62 314 5.0 15.0 0.00 0.00 0.00 63 1013.7
20260904063304 62 64 3.0 15.0 0.00 0.00 0.00 63 1013.8
20260904062805 62 34 4.0 13.0 0.00 0.00 0.00 63 1013.9
20260904060338 62 316 4.0 12.0 0.00 0.00 0.00 62 1014.3
20260904055822 62 299 4.0 12.0 0.00 0.00 0.00 62 1014.4
20260904055313 62 338 3.0 12.0 0.00 0.00 0.00 62 1014.5
20260904054804 62 300 3.0 11.0 0.00 0.00 0.00 62 1014.5
20260904054254 62 20 3.0 11.0 0.00 0.00 0.00 61 1014.6
20260904053739 62 49 4.0 11.0 0.00 0.00 0.00 61 1014.6
20260904053238 63 314 4.0 11.0 0.00 0.00 0.00 61 1014.5
20260904052723 63 272 4.0 11.0 0.00 0.00 0.00 61 1014.7
20260904052210 63 338 4.0 11.0 0.00 0.00 0.00 61 1014.7
20260904051655 64 344 3.0 11.0 0.00 0.00 0.00 59 1014.7
20260904051125 64 314 3.0 11.0 0.00 0.00 0.00 59 1014.7
20260904050021 64 295 2.0 8.0 0.00 0.00 0.00 60 1014.6
20260904045514 64 277 1.0 7.0 0.00 0.00 0.00 60 1014.6
20260904045005 64 341 2.0 7.0 0.00 0.00 0.00 59 1014.7
20260904044459 64 281 2.0 7.0 0.00 0.00 0.00 59 1014.9
20260904043347 64 295 1.0 7.0 0.00 0.00 0.00 59 1014.9
20260904042224 63 312 1.0 3.0 0.00 0.00 0.00 63 1014.8
20260904041708 63 286 1.0 4.0 0.00 0.00 0.00 63 1014.8
20260904041148 64 282 1.0 4.0 0.00 0.00 0.00 60 1014.7
20260904040642 64 315 1.0 5.0 0.00 0.00 0.00 59 1014.8
20260904040148 63 279 1.0 5.0 0.00 0.00 0.00 57 1014.8
20260904035639 64 317 1.0 5.0 0.00 0.00 0.00 57 1014.9
20260904033825 62 358 3.0 10.0 0.00 0.00 0.00 58 1015.4
20260904033326 62 276 2.0 10.0 0.00 0.00 0.00 59 1015.4
20260904032215 61 23 2.0 7.0 0.00 0.00 0.00 60 1015.5
20260904031031 61 320 1.0 5.0 0.00 0.00 0.00 64 1015.8
20260904030534 61 308 1.0 5.0 0.00 0.00 0.00 64 1015.9
20260904030031 61 291 1.0 6.0 0.00 0.00 0.00 60 1016.1
20260904025532 62 307 1.0 6.0 0.00 0.00 0.00 59 1016.2
20260904025015 62 328 2.0 7.0 0.00 0.00 0.00 58 1016.3
20260904024509 61 300 2.0 7.0 0.00 0.00 0.00 59 1016.2
20260904023331 60 308 3.0 11.0 0.00 0.00 0.00 59 1016.4
20260904022836 60 293 3.0 11.0 0.00 0.00 0.00 57 1016.6
20260904022336 61 277 3.0 9.0 0.00 0.00 0.00 57 1016.6
20260904021839 61 272 3.0 9.0 0.00 0.00 0.00 59 1016.7
20260904021320 61 294 2.0 11.0 0.00 0.00 0.00 58 1016.9
20260904020800 60 292 2.0 11.0 0.00 0.00 0.00 59 1016.9
20260904020247 60 254 3.0 11.0 0.00 0.00 0.00 58 1017.0
20260904015736 60 291 3.0 11.0 0.00 0.00 0.00 59 1017.1
20260904015231 60 278 2.0 10.0 0.00 0.00 0.00 59 1017.2
20260904014730 60 277 2.0 10.0 0.00 0.00 0.00 58 1017.1
20260904014221 60 275 3.0 10.0 0.00 0.00 0.00 56 1017.3
20260904013723 60 250 3.0 9.0 0.00 0.00 0.00 57 1017.3
20260904013227 60 262 2.0 9.0 0.00 0.00 0.00 57 1017.4
20260904012724 60 268 2.0 9.0 0.00 0.01 0.00 57 1017.5
20260904012208 60 287 2.0 10.0 0.00 0.02 0.00 57 1017.4
20260904011654 60 49 2.0 10.0 0.00 0.02 0.00 54 1017.5
20260904011200 60 305 2.0 10.0 0.00 0.02 0.00 55 1017.5
20260904010702 60 2 2.0 10.0 0.00 0.02 0.00 55 1017.6
20260904010148 60 278 1.0 7.0 0.00 0.02 0.00 57 1017.8
20260904005648 59 253 1.0 11.0 0.00 0.02 0.00 57 1018.0
20260904005135 59 287 2.0 11.0 0.00 0.02 0.00 57 1018.2
20260904004018 58 257 4.0 11.0 0.00 0.02 0.00 57 1018.4
20260904003509 58 293 4.0 11.0 0.00 0.02 0.00 60 1018.4
20260904003015 58 282 3.0 11.0 0.00 0.02 0.00 58 1018.6
20260904001902 58 289 2.0 8.0 0.00 0.02 0.00 58 1018.6
20260904001403 58 283 2.0 11.0 0.00 0.02 0.00 59 1018.6
20260904000849 58 266 2.0 11.0 0.00 0.02 0.00 59 1018.7
20260904000355 58 306 2.0 11.0 0.00 0.03 0.00 59 1018.7
20260903235843 58 288 2.0 11.0 0.00 0.03 0.00 61 1018.7
20260903235343 57 264 2.0 9.0 0.00 0.03 0.00 62 1018.7
20260903234851 57 299 2.0 8.0 0.00 0.03 0.00 63 1018.8
20260903234350 57 319 2.0 8.0 0.00 0.03 0.00 65 1018.6
20260903233832 56 26 1.0 5.0 0.00 0.03 0.00 66 1018.7
20260903233342 56 345 1.0 8.0 0.00 0.03 0.00 67 1019.0
20260903232849 55 347 1.0 8.0 0.00 0.03 0.00 68 1019.2
20260903232350 55 276 2.0 8.0 0.00 0.03 0.00 68 1019.1
20260903231833 55 284 2.0 8.0 0.00 0.03 0.00 68 1019.2
20260903231333 55 258 2.0 7.0 0.00 0.03 0.00 69 1019.1
20260903230816 54 9 1.0 7.0 0.00 0.03 0.00 69 1019.3
20260903230325 54 302 1.0 7.0 0.00 0.03 0.00 69 1019.3
20260903225157 54 339 1.0 5.0 0.00 0.03 0.00 71 1019.2
20260903224639 53 35 1.0 5.0 0.00 0.03 0.00 72 1019.3
20260903224147 53 340 0.0 4.0 0.00 0.03 0.00 73 1019.3
20260903223646 53 354 0.0 7.0 0.00 0.03 0.00 73 1019.3
20260903223133 52 338 0.0 7.0 0.00 0.03 0.00 74 1019.1
20260903222631 52 339 1.0 7.0 0.00 0.03 0.00 74 1019.1
20260903222141 51 33 0.0 7.0 0.00 0.03 0.00 74 1019.0
20260903221622 51 45 0.0 3.0 0.00 0.03 0.00 75 1018.9
20260903221102 50 13 0.0 4.0 0.00 0.03 0.00 76 1018.8
20260903220548 50 46 0.0 4.0 0.00 0.03 0.00 77 1018.8
20260903220036 49 358 0.0 4.0 0.00 0.03 0.00 78 1018.7
20260903214915 48 11 0.0 3.0 0.00 0.03 0.00 81 1018.7
20260903214425 47 7 0.0 1.0 0.00 0.03 0.00 82 1018.7
20260903213911 47 68 0.0 2.0 0.00 0.03 0.00 83 1018.6
20260903213415 46 35 0.0 2.0 0.00 0.03 0.00 83 1018.6
20260903212910 46 29 0.0 2.0 0.00 0.03 0.00 83 1018.4
20260903212413 46 347 0.0 0.0 0.00 0.03 0.00 83 1018.4
20260903211909 46 354 0.0 2.0 0.00 0.03 0.00 83 1018.4
20260903210804 45 33 0.0 0.0 0.00 0.03 0.00 83 1018.4
20260903210259 45 349 0.0 0.0 0.00 0.03 0.00 83 1018.3
20260903205742 45 28 0.0 0.0 0.00 0.03 0.00 83 1018.2
20260903205244 45 357 0.0 1.0 0.00 0.03 0.00 83 1018.2
20260903204726 45 349 0.0 2.0 0.00 0.03 0.00 84 1018.2
20260903203602 45 25 0.0 1.0 0.00 0.03 0.00 84 1018.1
20260903203109 45 332 0.0 1.0 0.00 0.03 0.00 84 1018.1
20260903201931 45 41 0.0 0.0 0.00 0.03 0.00 84 1018.0
20260903201416 45 52 0.0 1.0 0.00 0.03 0.00 84 1018.0
20260903200924 45 37 0.0 1.0 0.00 0.03 0.00 83 1018.0
20260903195157 45 32 0.0 0.0 0.00 0.03 0.00 82 1017.9
20260903194653 46 21 0.0 0.0 0.00 0.03 0.00 82 1017.9
20260903194138 46 10 0.0 0.0 0.00 0.03 0.00 82 1017.9
20260903193626 46 44 0.0 0.0 0.00 0.03 0.00 82 1018.0
20260903192454 46 355 0.0 1.0 0.00 0.03 0.00 82 1018.0
20260903191959 46 35 0.0 2.0 0.00 0.03 0.00 82 1017.9
20260903191452 46 21 0.0 0.0 0.00 0.03 0.00 81 1017.9
20260903190940 46 32 0.0 1.0 0.00 0.03 0.00 81 1017.9
20260903190447 47 33 0.0 0.0 0.00 0.03 0.00 80 1017.9
20260903185927 47 37 0.0 0.0 0.00 0.03 0.00 79 1017.9
20260903185422 48 30 0.0 0.0 0.00 0.03 0.00 79 1017.8
20260903184912 48 321 0.0 1.0 0.00 0.03 0.00 80 1017.8
20260903184359 48 314 0.0 0.0 0.00 0.03 0.00 80 1017.8
20260903183855 48 19 0.0 2.0 0.00 0.03 0.00 81 1017.8
20260903183351 48 328 0.0 2.0 0.00 0.03 0.00 81 1017.9
20260903182211 47 357 0.0 0.0 0.00 0.03 0.00 81 1017.8
20260903181719 47 35 0.0 0.0 0.00 0.03 0.00 81 1017.8
20260903181223 48 295 0.0 1.0 0.00 0.03 0.00 81 1017.7
20260903180058 47 300 0.0 4.0 0.00 0.03 0.00 83 1017.7
20260903175549 47 309 0.0 0.0 0.00 0.03 0.00 83 1017.8
20260903175029 47 13 0.0 0.0 0.00 0.03 0.00 83 1017.7
20260903173910 47 307 0.0 0.0 0.00 0.03 0.00 83 1017.8
20260903173418 47 13 0.0 0.0 0.00 0.03 0.00 83 1017.8
20260903172918 48 25 0.0 0.0 0.00 0.03 0.00 83 1017.8
20260903172423 48 2 0.0 0.0 0.00 0.03 0.00 83 1017.8
20260903171933 48 276 0.0 2.0 0.00 0.03 0.00 84 1017.8
20260903170159 48 42 0.0 0.0 0.00 0.03 0.00 84 1018.0
20260903165654 48 326 0.0 0.0 0.00 0.03 0.00 84 1018.1
20260903165143 48 4 0.0 2.0 0.00 0.03 0.00 84 1018.1
20260903164650 48 352 0.0 2.0 0.00 0.03 0.00 84 1018.1
20260903164148 48 16 0.0 0.0 0.00 0.03 0.00 84 1018.2
20260903163004 48 11 0.0 0.0 0.00 0.03 0.00 84 1018.3
20260903162446 48 33 0.0 0.0 0.00 0.03 0.00 84 1018.3
20260903161941 48 39 0.0 0.0 0.00 0.03 0.00 84 1018.4
20260903161435 48 35 0.0 0.0 0.00 0.03 0.00 84 1018.4
20260903160928 48 14 0.0 0.0 0.00 0.03 0.00 83 1018.5
20260903160410 49 35 0.0 0.0 0.00 0.03 0.00 83 1018.5
20260903155911 49 35 0.0 2.0 0.00 0.03 0.00 83 1018.5
20260903155354 49 25 0.0 2.0 0.00 0.03 0.00 83 1018.6
20260903154840 49 25 0.0 2.0 0.00 0.03 0.00 82 1018.5
20260903154325 49 347 0.0 3.0 0.00 0.03 0.00 81 1018.6
20260903153814 50 38 0.0 2.0 0.00 0.03 0.00 81 1018.6
20260903153315 50 44 0.0 2.0 0.00 0.03 0.00 81 1018.6
20260903152820 50 30 0.0 1.0 0.00 0.03 0.00 81 1018.6
20260903152325 51 23 0.0 0.0 0.00 0.03 0.00 81 1018.6
20260903151152 51 26 0.0 1.0 0.00 0.03 0.00 82 1018.6
20260903150639 51 1 0.0 2.0 0.00 0.03 0.00 81 1018.6
20260903145518 51 332 0.0 1.0 0.00 0.03 0.00 81 1018.6
20260903145011 52 21 0.0 1.0 0.00 0.03 0.00 81 1018.6
20260903144512 52 324 0.0 0.0 0.00 0.03 0.00 81 1018.6
20260903144017 52 321 0.0 3.0 0.00 0.03 0.00 80 1018.7
20260903142838 52 342 0.0 0.0 0.00 0.03 0.00 81 1018.7
20260903142318 52 279 0.0 3.0 0.00 0.03 0.00 81 1018.7
20260903141810 52 348 0.0 3.0 0.00 0.03 0.00 81 1018.7
20260903141313 52 345 0.0 3.0 0.00 0.03 0.00 81 1018.6
20260903140803 52 320 0.0 1.0 0.00 0.03 0.00 81 1018.7
20260903140313 52 0 0.0 3.0 0.00 0.03 0.00 81 1018.8
20260903135807 52 272 0.0 3.0 0.00 0.03 0.03 81 1018.8
20260903134659 52 32 0.0 3.0 0.00 0.03 0.03 81 1018.9
20260903134201 52 359 0.0 0.0 0.00 0.03 0.03 80 1018.8
20260903133705 52 279 0.0 0.0 0.00 0.03 0.03 80 1018.7
20260903133214 52 317 0.0 1.0 0.00 0.03 0.03 80 1018.7
20260903132656 53 326 0.0 1.0 0.00 0.03 0.03 80 1018.8
20260903132143 53 19 0.0 4.0 0.00 0.03 0.03 80 1018.8
20260903131641 53 308 0.0 4.0 0.00 0.03 0.03 80 1018.9
20260903131128 53 316 0.0 4.0 0.00 0.03 0.03 79 1018.9
20260903130611 53 324 0.0 3.0 0.00 0.03 0.03 80 1018.9
20260903130104 53 320 0.0 3.0 0.00 0.03 0.03 79 1018.9
20260903125550 53 352 0.0 2.0 0.00 0.03 0.03 79 1018.9
20260903125043 53 4 0.0 1.0 0.00 0.03 0.03 79 1018.9
20260903124552 53 278 0.0 5.0 0.00 0.03 0.03 79 1018.8
20260903124056 54 302 1.0 5.0 0.00 0.03 0.03 79 1018.8
20260903123602 54 302 1.0 5.0 0.00 0.03 0.03 79 1018.8
20260903123051 54 288 1.0 4.0 0.00 0.03 0.03 79 1018.8
20260903122543 54 277 1.0 4.0 0.00 0.03 0.03 79 1018.9
20260903122036 54 290 0.0 5.0 0.00 0.03 0.03 79 1018.9
20260903121534 54 295 0.0 5.0 0.00 0.03 0.03 79 1018.7
20260903121025 54 318 0.0 5.0 0.00 0.03 0.03 79 1018.7
20260903120533 54 319 0.0 5.0 0.00 0.03 0.03 79 1018.6
20260903120024 55 302 1.0 5.0 0.00 0.03 0.03 80 1018.6
20260903115516 55 278 1.0 5.0 0.00 0.03 0.03 79 1018.5
20260903114355 54 262 0.0 4.0 0.00 0.03 0.03 80 1018.5
20260903113842 54 264 0.0 4.0 0.00 0.03 0.03 80 1018.5
20260903113328 54 300 0.0 4.0 0.00 0.03 0.03 80 1018.4
20260903112825 55 285 0.0 4.0 0.00 0.03 0.03 80 1018.3